Time,TemperatureF,DewpointF,PressureIn,WindDirection,WindDirectionDegrees,WindSpeedMPH,WindSpeedGustMPH,Humidity,HourlyPrecipIn,Conditions,Clouds,dailyrainin,SoftwareType,DateUTC
2013-09-15 00:00:00,64.7,43.2,29.97,West,259,0.0,0.0,46,0.00,,---,0.00,VWS V14.00,2013-09-15 07:00:00,
2013-09-15 00:10:00,65.3,42.5,29.97,West,259,0.0,0.0,44,0.00,,---,0.00,VWS V14.00,2013-09-15 07:10:00,
2013-09-15 00:15:00,65.2,42.5,29.97,West,259,0.0,0.0,44,0.00,,---,0.00,VWS V14.00,2013-09-15 07:15:00,
2013-09-15 00:20:00,65.1,42.4,29.97,West,259,0.0,0.0,44,0.00,,---,0.00,VWS V14.00,2013-09-15 07:20:00,
2013-09-15 00:25:00,65.0,42.3,29.97,West,259,0.0,0.0,44,0.00,,---,0.00,VWS V14.00,2013-09-15 07:25:00,
2013-09-15 00:30:00,64.4,41.7,29.97,West,259,0.0,0.0,44,0.00,,---,0.00,VWS V14.00,2013-09-15 07:30:00,
2013-09-15 00:35:00,64.0,42.0,29.97,West,259,0.0,0.0,44,0.00,,---,0.00,VWS V14.00,2013-09-15 07:35:00,
2013-09-15 00:40:00,64.0,41.4,29.97,West,259,0.0,0.0,44,0.00,,---,0.00,VWS V14.00,2013-09-15 07:40:00,
2013-09-15 00:45:00,63.8,41.8,29.96,West,259,0.0,0.0,44,0.00,,---,0.00,VWS V14.00,2013-09-15 07:45:00,
2013-09-15 00:50:00,63.6,42.7,29.96,West,259,0.0,0.0,46,0.00,,---,0.00,VWS V14.00,2013-09-15 07:50:00,
2013-09-15 00:55:00,63.6,42.2,29.96,West,259,0.0,0.0,46,0.00,,---,0.00,VWS V14.00,2013-09-15 07:55:00,
2013-09-15 01:00:00,63.5,42.1,29.96,West,259,0.0,0.0,46,0.00,,---,0.00,VWS V14.00,2013-09-15 08:00:00,
2013-09-15 01:10:00,64.7,41.4,29.96,West,259,0.0,0.0,42,0.00,,---,0.00,VWS V14.00,2013-09-15 08:10:00,
2013-09-15 01:15:00,64.1,41.5,29.96,West,259,0.0,0.0,44,0.00,,---,0.00,VWS V14.00,2013-09-15 08:15:00,
2013-09-15 01:20:00,64.1,41.5,29.96,West,259,0.0,0.0,44,0.00,,---,0.00,VWS V14.00,2013-09-15 08:20:00,
2013-09-15 01:25:00,64.6,41.9,29.96,West,259,0.0,0.0,44,0.00,,---,0.00,VWS V14.00,2013-09-15 08:25:00,
2013-09-15 01:30:00,64.4,41.1,29.96,West,259,0.0,0.0,42,0.00,,---,0.00,VWS V14.00,2013-09-15 08:30:00,
2013-09-15 01:35:00,63.3,40.7,29.96,West,259,0.0,0.0,44,0.00,,---,0.00,VWS V14.00,2013-09-15 08:35:00,
2013-09-15 01:40:00,62.8,40.9,29.96,West,259,0.0,0.0,44,0.00,,---,0.00,VWS V14.00,2013-09-15 08:40:00,
2013-09-15 01:45:00,63.1,41.2,29.96,West,259,0.0,0.0,44,0.00,,---,0.00,VWS V14.00,2013-09-15 08:45:00,
2013-09-15 01:50:00,63.3,41.9,29.96,West,259,0.0,0.0,46,0.00,,---,0.00,VWS V14.00,2013-09-15 08:50:00,
2013-09-15 02:00:00,63.4,41.4,29.96,West,259,0.0,0.0,44,0.00,,---,0.00,VWS V14.00,2013-09-15 09:00:00,
2013-09-15 02:10:00,61.2,40.5,29.96,West,259,0.0,0.0,46,0.00,,---,0.00,VWS V14.00,2013-09-15 09:10:00,
2013-09-15 02:15:00,60.5,40.5,29.96,West,259,0.0,0.0,48,0.00,,---,0.00,VWS V14.00,2013-09-15 09:15:00,
2013-09-15 02:20:00,60.6,40.5,29.96,West,259,0.0,0.0,48,0.00,,---,0.00,VWS V14.00,2013-09-15 09:20:00,
2013-09-15 02:25:00,60.9,40.8,29.96,West,259,0.0,0.0,48,0.00,,---,0.00,VWS V14.00,2013-09-15 09:25:00,
2013-09-15 02:30:00,61.1,40.5,29.96,West,259,0.0,0.0,46,0.00,,---,0.00,VWS V14.00,2013-09-15 09:30:00,
2013-09-15 02:35:00,60.6,40.0,29.96,West,259,0.0,0.0,46,0.00,,---,0.00,VWS V14.00,2013-09-15 09:35:00,
2013-09-15 02:45:00,60.2,40.2,29.96,West,259,0.0,0.0,48,0.00,,---,0.00,VWS V14.00,2013-09-15 09:45:00,
2013-09-15 02:50:00,60.1,40.1,29.96,West,259,0.0,0.0,48,0.00,,---,0.00,VWS V14.00,2013-09-15 09:50:00,
2013-09-15 02:55:00,60.3,39.7,29.96,West,259,0.0,0.0,46,0.00,,---,0.00,VWS V14.00,2013-09-15 09:55:00,
2013-09-15 03:00:00,60.3,39.7,29.96,West,259,0.0,0.0,46,0.00,,---,0.00,VWS V14.00,2013-09-15 10:00:00,
2013-09-15 03:05:00,60.1,39.5,29.95,West,259,0.0,0.0,46,0.00,,---,0.00,VWS V14.00,2013-09-15 10:05:00,
2013-09-15 03:10:00,60.1,39.5,29.95,West,259,0.0,0.0,46,0.00,,---,0.00,VWS V14.00,2013-09-15 10:10:00,
2013-09-15 03:15:00,59.8,39.3,29.95,West,259,0.0,0.0,46,0.00,,---,0.00,VWS V14.00,2013-09-15 10:15:00,
2013-09-15 03:20:00,60.3,40.3,29.95,West,259,0.0,0.0,48,0.00,,---,0.00,VWS V14.00,2013-09-15 10:20:00,
2013-09-15 03:25:00,61.4,40.7,29.95,West,259,0.0,0.0,46,0.00,,---,0.00,VWS V14.00,2013-09-15 10:25:00,
2013-09-15 03:30:00,62.0,40.7,29.95,West,259,0.0,0.0,46,0.00,,---,0.00,VWS V14.00,2013-09-15 10:30:00,
2013-09-15 03:35:00,62.2,40.9,29.95,West,259,0.0,0.0,46,0.00,,---,0.00,VWS V14.00,2013-09-15 10:35:00,
2013-09-15 03:40:00,62.5,40.6,29.95,West,259,0.0,0.0,44,0.00,,---,0.00,VWS V14.00,2013-09-15 10:40:00,
2013-09-15 03:45:00,62.2,40.9,29.95,West,259,0.0,0.0,46,0.00,,---,0.00,VWS V14.00,2013-09-15 10:45:00,
2013-09-15 03:50:00,61.7,40.5,29.95,West,259,0.0,0.0,46,0.00,,---,0.00,VWS V14.00,2013-09-15 10:50:00,
2013-09-15 03:55:00,61.5,40.8,29.95,West,259,0.0,0.0,46,0.00,,---,0.00,VWS V14.00,2013-09-15 10:55:00,
2013-09-15 04:00:00,61.7,41.6,29.95,West,259,0.0,0.0,48,0.00,,---,0.00,VWS V14.00,2013-09-15 11:00:00,
2013-09-15 04:05:00,61.8,41.1,29.96,West,259,0.0,0.0,46,0.00,,---,0.00,VWS V14.00,2013-09-15 11:05:00,
2013-09-15 04:10:00,61.4,40.7,29.96,West,259,0.0,0.0,46,0.00,,---,0.00,VWS V14.00,2013-09-15 11:10:00,
2013-09-15 04:15:00,60.9,40.3,29.95,West,259,0.0,0.0,46,0.00,,---,0.00,VWS V14.00,2013-09-15 11:15:00,
2013-09-15 04:20:00,60.9,40.3,29.96,West,259,0.0,0.0,46,0.00,,---,0.00,VWS V14.00,2013-09-15 11:20:00,
2013-09-15 04:25:00,60.4,39.3,29.95,West,259,0.0,0.0,46,0.00,,---,0.00,VWS V14.00,2013-09-15 11:25:00,
2013-09-15 04:30:00,59.6,39.6,29.95,West,259,0.0,0.0,48,0.00,,---,0.00,VWS V14.00,2013-09-15 11:30:00,
2013-09-15 04:35:00,59.3,39.9,29.95,West,259,0.0,0.0,48,0.00,,---,0.00,VWS V14.00,2013-09-15 11:35:00,
2013-09-15 04:40:00,59.6,40.2,29.95,West,259,0.0,0.0,48,0.00,,---,0.00,VWS V14.00,2013-09-15 11:40:00,
2013-09-15 04:45:00,60.0,40.5,29.95,West,259,0.0,0.0,48,0.00,,---,0.00,VWS V14.00,2013-09-15 11:45:00,
2013-09-15 04:50:00,60.5,40.5,29.95,West,259,0.0,0.0,48,0.00,,---,0.00,VWS V14.00,2013-09-15 11:50:00,
2013-09-15 04:55:00,59.6,39.6,29.95,West,259,0.0,0.0,48,0.00,,---,0.00,VWS V14.00,2013-09-15 11:55:00,
2013-09-15 05:00:00,58.6,39.3,29.95,West,259,0.0,0.0,48,0.00,,---,0.00,VWS V14.00,2013-09-15 12:00:00,
2013-09-15 05:05:00,57.9,39.7,29.96,West,259,0.0,0.0,50,0.00,,---,0.00,VWS V14.00,2013-09-15 12:05:00,
2013-09-15 05:10:00,58.0,39.2,29.96,West,259,0.0,0.0,50,0.00,,---,0.00,VWS V14.00,2013-09-15 12:10:00,
2013-09-15 05:15:00,58.6,40.3,29.96,West,259,0.0,0.0,50,0.00,,---,0.00,VWS V14.00,2013-09-15 12:15:00,
2013-09-15 05:20:00,59.6,40.2,29.96,West,259,0.0,0.0,48,0.00,,---,0.00,VWS V14.00,2013-09-15 12:20:00,
2013-09-15 05:25:00,60.4,40.4,29.96,West,259,0.0,0.0,48,0.00,,---,0.00,VWS V14.00,2013-09-15 12:25:00,
2013-09-15 05:30:00,60.8,40.7,29.96,West,259,0.0,0.0,48,0.00,,---,0.00,VWS V14.00,2013-09-15 12:30:00,
2013-09-15 05:35:00,61.0,40.4,29.96,West,259,0.0,0.0,46,0.00,,---,0.00,VWS V14.00,2013-09-15 12:35:00,
2013-09-15 05:40:00,61.2,40.5,29.96,West,259,0.0,0.0,46,0.00,,---,0.00,VWS V14.00,2013-09-15 12:40:00,
2013-09-15 05:45:00,61.9,41.2,29.96,West,259,0.0,0.0,46,0.00,,---,0.00,VWS V14.00,2013-09-15 12:45:00,
2013-09-15 05:50:00,62.6,41.3,29.96,West,259,0.0,0.0,46,0.00,,---,0.00,VWS V14.00,2013-09-15 12:50:00,
2013-09-15 05:55:00,62.8,40.9,29.96,West,259,0.0,0.0,44,0.00,,---,0.00,VWS V14.00,2013-09-15 12:55:00,
2013-09-15 06:00:00,61.2,40.0,29.96,West,259,0.0,0.0,46,0.00,,---,0.00,VWS V14.00,2013-09-15 13:00:00,
2013-09-15 06:05:00,59.5,39.5,29.96,West,259,0.0,0.0,48,0.00,,---,0.00,VWS V14.00,2013-09-15 13:05:00,
2013-09-15 06:10:00,59.0,40.2,29.96,West,259,0.0,0.0,50,0.00,,---,0.00,VWS V14.00,2013-09-15 13:10:00,
2013-09-15 06:15:00,58.2,39.4,29.96,West,259,0.0,0.0,50,0.00,,---,0.00,VWS V14.00,2013-09-15 13:15:00,
2013-09-15 06:20:00,57.7,39.5,29.96,West,259,0.0,0.0,50,0.00,,---,0.00,VWS V14.00,2013-09-15 13:20:00,
2013-09-15 06:25:00,58.0,39.7,29.96,West,259,0.0,0.0,50,0.00,,---,0.00,VWS V14.00,2013-09-15 13:25:00,
2013-09-15 06:30:00,58.0,39.7,29.96,West,259,0.0,0.0,50,0.00,,---,0.00,VWS V14.00,2013-09-15 13:30:00,
2013-09-15 06:35:00,58.3,39.5,29.96,West,259,0.0,0.0,50,0.00,,---,0.00,VWS V14.00,2013-09-15 13:35:00,
2013-09-15 06:40:00,59.0,39.6,29.96,West,259,0.0,0.0,48,0.00,,---,0.00,VWS V14.00,2013-09-15 13:40:00,
2013-09-15 06:45:00,60.5,39.9,29.96,West,259,0.0,0.0,46,0.00,,---,0.00,VWS V14.00,2013-09-15 13:45:00,
2013-09-15 06:50:00,61.8,40.0,29.96,West,259,0.0,0.0,44,0.00,,---,0.00,VWS V14.00,2013-09-15 13:50:00,
2013-09-15 06:55:00,62.2,40.3,29.96,West,261,0.0,0.0,44,0.00,,---,0.00,VWS V14.00,2013-09-15 13:55:00,
2013-09-15 07:00:00,62.2,40.3,29.96,West,261,0.0,0.0,44,0.00,,---,0.00,VWS V14.00,2013-09-15 14:00:00,
2013-09-15 07:05:00,62.2,40.9,29.96,West,260,0.0,0.0,46,0.00,,---,0.00,VWS V14.00,2013-09-15 14:05:00,
2013-09-15 07:10:00,62.0,40.7,29.96,West,260,0.0,0.0,46,0.00,,---,0.00,VWS V14.00,2013-09-15 14:10:00,
2013-09-15 07:15:00,61.9,40.6,29.97,West,261,0.0,0.0,46,0.00,,---,0.00,VWS V14.00,2013-09-15 14:15:00,
2013-09-15 07:20:00,61.6,40.9,29.97,West,261,0.0,0.0,46,0.00,,---,0.00,VWS V14.00,2013-09-15 14:20:00,
2013-09-15 07:25:00,61.4,40.7,29.97,West,260,0.0,0.0,46,0.00,,---,0.00,VWS V14.00,2013-09-15 14:25:00,
2013-09-15 07:30:00,61.8,41.1,29.97,West,261,0.0,0.0,46,0.00,,---,0.00,VWS V14.00,2013-09-15 14:30:00,
2013-09-15 07:35:00,62.0,41.3,29.97,West,261,0.0,0.0,46,0.00,,---,0.00,VWS V14.00,2013-09-15 14:35:00,
2013-09-15 07:45:00,62.6,41.3,29.97,West,260,0.0,0.0,46,0.00,,---,0.00,VWS V14.00,2013-09-15 14:45:00,
2013-09-15 07:50:00,63.2,41.2,29.97,West,261,0.0,0.0,44,0.00,,---,0.00,VWS V14.00,2013-09-15 14:50:00,
2013-09-15 08:00:00,64.7,42.0,29.97,West,261,0.0,0.0,44,0.00,,---,0.00,VWS V14.00,2013-09-15 15:00:00,
2013-09-15 08:05:00,65.2,41.9,29.97,West,260,0.0,0.0,42,0.00,,---,0.00,VWS V14.00,2013-09-15 15:05:00,
2013-09-15 08:10:00,65.3,41.3,29.97,West,261,0.0,0.0,42,0.00,,---,0.00,VWS V14.00,2013-09-15 15:10:00,
2013-09-15 08:15:00,65.6,41.6,29.97,West,261,0.0,0.0,42,0.00,,---,0.00,VWS V14.00,2013-09-15 15:15:00,
2013-09-15 08:20:00,66.2,42.1,29.97,West,260,0.0,0.0,42,0.00,,---,0.00,VWS V14.00,2013-09-15 15:20:00,
2013-09-15 08:25:00,67.1,42.3,29.98,West,260,0.0,0.0,40,0.00,,---,0.00,VWS V14.00,2013-09-15 15:25:00,
2013-09-15 08:35:00,68.7,43.1,29.98,West,261,9.0,9.0,40,0.00,,---,0.00,VWS V14.00,2013-09-15 15:35:00,
2013-09-15 08:40:00,69.8,43.4,29.98,West,261,5.0,9.0,38,0.00,,---,0.00,VWS V14.00,2013-09-15 15:40:00,
2013-09-15 08:45:00,70.8,43.6,29.98,West,260,5.0,8.0,38,0.00,,---,0.00,VWS V14.00,2013-09-15 15:45:00,
2013-09-15 08:50:00,71.3,43.4,29.97,West,261,4.0,10.0,36,0.00,,---,0.00,VWS V14.00,2013-09-15 15:50:00,
2013-09-15 08:55:00,72.2,44.2,29.97,West,261,6.0,8.0,36,0.00,,---,0.00,VWS V14.00,2013-09-15 15:55:00,
2013-09-15 09:00:00,72.5,44.4,29.97,West,261,6.0,8.0,36,0.00,,---,0.00,VWS V14.00,2013-09-15 16:00:00,
2013-09-15 09:10:00,73.0,44.1,29.98,West,261,5.0,7.0,36,0.00,,---,0.00,VWS V14.00,2013-09-15 16:10:00,
2013-09-15 09:15:00,73.5,43.8,29.97,West,261,2.0,7.0,34,0.00,,---,0.00,VWS V14.00,2013-09-15 16:15:00,
2013-09-15 09:20:00,73.9,44.2,29.98,West,260,6.0,7.0,34,0.00,,---,0.00,VWS V14.00,2013-09-15 16:20:00,
2013-09-15 09:25:00,74.6,44.0,29.98,West,260,6.0,9.0,34,0.00,,---,0.00,VWS V14.00,2013-09-15 16:25:00,
2013-09-15 09:30:00,75.5,43.2,29.98,West,260,6.0,11.0,32,0.00,,---,0.00,VWS V14.00,2013-09-15 16:30:00,
2013-09-15 09:35:00,76.1,42.0,29.97,WSW,250,11.0,13.0,30,0.00,,---,0.00,VWS V14.00,2013-09-15 16:35:00,
2013-09-15 09:40:00,76.4,40.5,29.98,SW,229,14.0,15.0,28,0.00,,---,0.00,VWS V14.00,2013-09-15 16:40:00,
2013-09-15 09:45:00,76.8,38.9,29.98,SW,224,13.0,16.0,26,0.00,,---,0.00,VWS V14.00,2013-09-15 16:45:00,
2013-09-15 09:55:00,77.5,37.4,29.98,SSW,203,9.0,21.0,24,0.00,,---,0.00,VWS V14.00,2013-09-15 16:55:00,
2013-09-15 10:00:00,77.6,36.3,29.97,SSW,203,13.0,15.0,22,0.00,,---,0.00,VWS V14.00,2013-09-15 17:00:00,
2013-09-15 10:05:00,78.0,36.7,29.97,South,186,23.0,23.0,22,0.00,,---,0.00,VWS V14.00,2013-09-15 17:05:00,
2013-09-15 10:10:00,77.8,36.5,29.97,SW,216,12.0,24.0,22,0.00,,---,0.00,VWS V14.00,2013-09-15 17:10:00,
2013-09-15 10:15:00,78.7,34.9,29.97,SW,223,13.0,19.0,20,0.00,,---,0.00,VWS V14.00,2013-09-15 17:15:00,
2013-09-15 10:20:00,79.2,35.3,29.97,SW,217,14.0,18.0,20,0.00,,---,0.00,VWS V14.00,2013-09-15 17:20:00,
2013-09-15 10:25:00,79.0,33.9,29.97,SW,215,11.0,22.0,20,0.00,,---,0.00,VWS V14.00,2013-09-15 17:25:00,
2013-09-15 10:30:00,79.0,33.9,29.98,SSW,205,16.0,19.0,20,0.00,,---,0.00,VWS V14.00,2013-09-15 17:30:00,
2013-09-15 10:35:00,79.1,34.0,29.98,SSW,207,12.0,22.0,20,0.00,,---,0.00,VWS V14.00,2013-09-15 17:35:00,
2013-09-15 10:40:00,79.8,34.6,29.97,SW,214,21.0,22.0,20,0.00,,---,0.00,VWS V14.00,2013-09-15 17:40:00,
2013-09-15 10:45:00,79.8,34.6,29.97,SSW,206,11.0,27.0,20,0.00,,---,0.00,VWS V14.00,2013-09-15 17:45:00,
2013-09-15 10:50:00,80.0,33.4,29.97,SSW,201,22.0,25.0,18,0.00,,---,0.00,VWS V14.00,2013-09-15 17:50:00,
2013-09-15 11:00:00,81.0,34.2,29.97,SSW,198,13.0,23.0,18,0.00,,---,0.00,VWS V14.00,2013-09-15 18:00:00,
2013-09-15 11:05:00,81.4,34.6,29.97,SSW,207,16.0,23.0,18,0.00,,---,0.00,VWS V14.00,2013-09-15 18:05:00,
2013-09-15 11:10:00,81.6,34.7,29.97,SSW,199,16.0,27.0,18,0.00,,---,0.00,VWS V14.00,2013-09-15 18:10:00,
2013-09-15 11:15:00,81.5,33.2,29.97,SW,222,18.0,28.0,18,0.00,,---,0.00,VWS V14.00,2013-09-15 18:15:00,
2013-09-15 11:20:00,81.3,33.1,29.97,SSW,209,14.0,29.0,18,0.00,,---,0.00,VWS V14.00,2013-09-15 18:20:00,
2013-09-15 11:25:00,81.6,33.3,29.97,SW,225,19.0,30.0,18,0.00,,---,0.00,VWS V14.00,2013-09-15 18:25:00,
2013-09-15 11:30:00,81.5,34.6,29.97,SW,221,21.0,31.0,18,0.00,,---,0.00,VWS V14.00,2013-09-15 18:30:00,
2013-09-15 11:35:00,82.0,35.0,29.97,SSW,209,20.0,25.0,18,0.00,,---,0.00,VWS V14.00,2013-09-15 18:35:00,
2013-09-15 11:45:00,82.7,35.6,29.97,WSW,238,25.0,31.0,18,0.00,,---,0.00,VWS V14.00,2013-09-15 18:45:00,
2013-09-15 11:50:00,82.4,35.4,29.97,SW,219,16.0,31.0,18,0.00,,---,0.00,VWS V14.00,2013-09-15 18:50:00,
2013-09-15 12:00:00,82.9,34.4,29.97,SW,217,15.0,30.0,18,0.00,,---,0.00,VWS V14.00,2013-09-15 19:00:00,
2013-09-15 12:05:00,82.5,35.5,29.96,SW,222,29.0,29.0,18,0.00,,---,0.00,VWS V14.00,2013-09-15 19:05:00,
2013-09-15 12:15:00,83.3,36.1,29.96,SSW,200,10.0,33.0,18,0.00,,---,0.00,VWS V14.00,2013-09-15 19:15:00,
2013-09-15 12:20:00,83.8,35.1,29.96,SW,229,18.0,27.0,18,0.00,,---,0.00,VWS V14.00,2013-09-15 19:20:00,
2013-09-15 12:25:00,83.2,34.6,29.96,SW,230,26.0,33.0,18,0.00,,---,0.00,VWS V14.00,2013-09-15 19:25:00,
2013-09-15 12:30:00,83.5,36.3,29.96,SW,217,20.0,29.0,18,0.00,,---,0.00,VWS V14.00,2013-09-15 19:30:00,
2013-09-15 12:40:00,84.3,35.5,29.96,SW,226,21.0,28.0,18,0.00,,---,0.00,VWS V14.00,2013-09-15 19:40:00,
2013-09-15 12:45:00,83.6,36.3,29.95,WSW,245,22.0,33.0,18,0.00,,---,0.00,VWS V14.00,2013-09-15 19:45:00,
2013-09-15 12:50:00,83.6,36.3,29.96,SW,217,15.0,33.0,18,0.00,,---,0.00,VWS V14.00,2013-09-15 19:50:00,
2013-09-15 12:55:00,84.0,36.7,29.96,SW,229,16.0,26.0,18,0.00,,---,0.00,VWS V14.00,2013-09-15 19:55:00,
2013-09-15 13:05:00,83.9,36.6,29.95,SW,229,21.0,31.0,18,0.00,,---,0.00,VWS V14.00,2013-09-15 20:05:00,
2013-09-15 13:10:00,83.7,36.4,29.95,SW,229,18.0,29.0,18,0.00,,---,0.00,VWS V14.00,2013-09-15 20:10:00,
2013-09-15 13:20:00,84.5,37.1,29.95,SW,224,23.0,30.0,18,0.00,,---,0.00,VWS V14.00,2013-09-15 20:20:00,
2013-09-15 13:30:00,84.5,37.1,29.95,SW,227,23.0,29.0,18,0.00,,---,0.00,VWS V14.00,2013-09-15 20:30:00,
2013-09-15 13:40:00,84.7,37.2,29.95,SW,226,25.0,28.0,18,0.00,,---,0.00,VWS V14.00,2013-09-15 20:40:00,
2013-09-15 13:50:00,84.8,37.3,29.95,SW,222,26.0,32.0,18,0.00,,---,0.00,VWS V14.00,2013-09-15 20:50:00,
2013-09-15 13:55:00,84.8,37.3,29.95,SW,217,22.0,29.0,18,0.00,,---,0.00,VWS V14.00,2013-09-15 20:55:00,
2013-09-15 14:00:00,84.4,38.3,29.95,SW,220,26.0,35.0,20,0.00,,---,0.00,VWS V14.00,2013-09-15 21:00:00,
2013-09-15 14:05:00,85.1,38.9,29.95,SW,232,23.0,29.0,20,0.00,,---,0.00,VWS V14.00,2013-09-15 21:05:00,
2013-09-15 14:10:00,85.0,38.8,29.94,SSW,198,27.0,30.0,20,0.00,,---,0.00,VWS V14.00,2013-09-15 21:10:00,
2013-09-15 14:20:00,84.6,38.5,29.94,SW,229,21.0,33.0,20,0.00,,---,0.00,VWS V14.00,2013-09-15 21:20:00,
2013-09-15 14:30:00,84.6,38.5,29.94,SSW,211,21.0,34.0,20,0.00,,---,0.00,VWS V14.00,2013-09-15 21:30:00,
2013-09-15 14:35:00,85.0,37.5,29.94,SW,230,26.0,32.0,18,0.00,,---,0.00,VWS V14.00,2013-09-15 21:35:00,
2013-09-15 14:40:00,84.6,38.5,29.94,SW,229,24.0,33.0,20,0.00,,---,0.00,VWS V14.00,2013-09-15 21:40:00,
2013-09-15 14:50:00,84.4,38.3,29.94,SW,227,19.0,31.0,20,0.00,,---,0.00,VWS V14.00,2013-09-15 21:50:00,
2013-09-15 14:55:00,85.4,39.2,29.94,SW,224,19.0,33.0,20,0.00,,---,0.00,VWS V14.00,2013-09-15 21:55:00,
2013-09-15 15:00:00,85.5,40.5,29.94,SW,215,21.0,27.0,20,0.00,,---,0.00,VWS V14.00,2013-09-15 22:00:00,
2013-09-15 15:05:00,85.6,40.6,29.94,WSW,237,24.0,25.0,20,0.00,,---,0.00,VWS V14.00,2013-09-15 22:05:00,
2013-09-15 15:10:00,84.5,39.7,29.94,SW,223,28.0,31.0,20,0.00,,---,0.00,VWS V14.00,2013-09-15 22:10:00,
2013-09-15 15:15:00,84.8,40.0,29.94,SW,216,13.0,29.0,20,0.00,,---,0.00,VWS V14.00,2013-09-15 22:15:00,
2013-09-15 15:25:00,84.1,39.4,29.94,SW,218,20.0,30.0,20,0.00,,---,0.00,VWS V14.00,2013-09-15 22:25:00,
2013-09-15 15:30:00,84.1,40.6,29.94,SW,218,16.0,30.0,22,0.00,,---,0.00,VWS V14.00,2013-09-15 22:30:00,
2013-09-15 15:40:00,84.0,40.5,29.93,SW,226,18.0,30.0,22,0.00,,---,0.00,VWS V14.00,2013-09-15 22:40:00,
2013-09-15 15:45:00,84.6,41.0,29.93,SSW,213,21.0,29.0,22,0.00,,---,0.00,VWS V14.00,2013-09-15 22:45:00,
2013-09-15 15:55:00,83.9,40.4,29.93,SW,223,15.0,30.0,22,0.00,,---,0.00,VWS V14.00,2013-09-15 22:55:00,
2013-09-15 16:00:00,84.2,40.7,29.93,SSW,192,21.0,29.0,22,0.00,,---,0.00,VWS V14.00,2013-09-15 23:00:00,
2013-09-15 16:10:00,83.3,41.1,29.93,SSW,211,26.0,34.0,22,0.00,,---,0.00,VWS V14.00,2013-09-15 23:10:00,
2013-09-15 16:15:00,83.3,41.1,29.93,SW,226,13.0,33.0,22,0.00,,---,0.00,VWS V14.00,2013-09-15 23:15:00,
2013-09-15 16:20:00,82.7,41.7,29.94,SW,223,21.0,33.0,24,0.00,,---,0.00,VWS V14.00,2013-09-15 23:20:00,
2013-09-15 16:30:00,82.2,42.4,29.94,SSW,212,22.0,35.0,24,0.00,,---,0.00,VWS V14.00,2013-09-15 23:30:00,
2013-09-15 16:35:00,82.1,42.3,29.94,SW,222,23.0,32.0,24,0.00,,---,0.00,VWS V14.00,2013-09-15 23:35:00,
2013-09-15 16:40:00,82.1,42.3,29.94,SW,223,19.0,28.0,24,0.00,,---,0.00,VWS V14.00,2013-09-15 23:40:00,
2013-09-15 16:45:00,82.4,41.5,29.94,SW,222,27.0,31.0,24,0.00,,---,0.00,VWS V14.00,2013-09-15 23:45:00,
2013-09-15 16:55:00,81.5,40.7,29.94,SW,229,21.0,32.0,24,0.00,,---,0.00,VWS V14.00,2013-09-15 23:55:00,
2013-09-15 17:00:00,81.2,41.5,29.94,SW,223,26.0,30.0,24,0.00,,---,0.00,VWS V14.00,2013-09-16 00:00:00,
2013-09-15 17:05:00,81.3,40.5,29.94,SW,225,16.0,30.0,24,0.00,,---,0.00,VWS V14.00,2013-09-16 00:05:00,
2013-09-15 17:10:00,81.5,40.7,29.94,SW,215,15.0,29.0,24,0.00,,---,0.00,VWS V14.00,2013-09-16 00:10:00,
2013-09-15 17:15:00,81.0,40.3,29.94,SW,218,16.0,26.0,24,0.00,,---,0.00,VWS V14.00,2013-09-16 00:15:00,
2013-09-15 17:20:00,80.7,40.0,29.94,SW,229,18.0,28.0,24,0.00,,---,0.00,VWS V14.00,2013-09-16 00:20:00,
2013-09-15 17:25:00,80.6,40.0,29.94,SW,227,22.0,31.0,24,0.00,,---,0.00,VWS V14.00,2013-09-16 00:25:00,
2013-09-15 17:30:00,80.1,39.5,29.94,SW,221,19.0,32.0,24,0.00,,---,0.00,VWS V14.00,2013-09-16 00:30:00,
2013-09-15 17:40:00,79.9,39.4,29.94,SW,229,26.0,28.0,24,0.00,,---,0.00,VWS V14.00,2013-09-16 00:40:00,
2013-09-15 17:45:00,79.6,39.1,29.94,SW,216,24.0,27.0,24,0.00,,---,0.00,VWS V14.00,2013-09-16 00:45:00,
2013-09-15 17:50:00,79.4,39.0,29.94,SW,233,25.0,26.0,24,0.00,,---,0.00,VWS V14.00,2013-09-16 00:50:00,
2013-09-15 17:55:00,79.4,39.0,29.94,SW,229,21.0,26.0,24,0.00,,---,0.00,VWS V14.00,2013-09-16 00:55:00,
2013-09-15 18:00:00,79.0,38.6,29.95,SW,218,20.0,27.0,24,0.00,,---,0.00,VWS V14.00,2013-09-16 01:00:00,
2013-09-15 18:05:00,78.7,38.4,29.94,SSW,208,24.0,29.0,24,0.00,,---,0.00,VWS V14.00,2013-09-16 01:05:00,
2013-09-15 18:10:00,78.2,38.0,29.95,SSW,210,28.0,29.0,24,0.00,,---,0.00,VWS V14.00,2013-09-16 01:10:00,
2013-09-15 18:15:00,78.0,38.8,29.95,SW,227,18.0,28.0,24,0.00,,---,0.00,VWS V14.00,2013-09-16 01:15:00,
2013-09-15 18:20:00,77.6,38.5,29.95,SW,229,19.0,27.0,24,0.00,,---,0.00,VWS V14.00,2013-09-16 01:20:00,
2013-09-15 18:25:00,77.2,38.2,29.95,SW,219,14.0,26.0,24,0.00,,---,0.00,VWS V14.00,2013-09-16 01:25:00,
2013-09-15 18:30:00,76.9,37.9,29.95,SW,217,19.0,30.0,24,0.00,,---,0.00,VWS V14.00,2013-09-16 01:30:00,
2013-09-15 18:35:00,76.6,37.7,29.95,SW,226,19.0,25.0,24,0.00,,---,0.00,VWS V14.00,2013-09-16 01:35:00,
2013-09-15 18:40:00,76.1,37.2,29.96,SW,217,16.0,27.0,24,0.00,,---,0.00,VWS V14.00,2013-09-16 01:40:00,
2013-09-15 18:45:00,75.7,36.9,29.96,SW,224,19.0,25.0,24,0.00,,---,0.00,VWS V14.00,2013-09-16 01:45:00,
2013-09-15 18:50:00,74.8,37.2,29.96,SW,230,19.0,23.0,26,0.00,,---,0.00,VWS V14.00,2013-09-16 01:50:00,
2013-09-15 18:55:00,74.2,36.7,29.96,SW,229,14.0,23.0,26,0.00,,---,0.00,VWS V14.00,2013-09-16 01:55:00,
2013-09-15 19:00:00,74.0,36.5,29.96,SW,223,19.0,26.0,26,0.00,,---,0.00,VWS V14.00,2013-09-16 02:00:00,
2013-09-15 19:05:00,73.7,36.2,29.96,SW,215,12.0,24.0,26,0.00,,---,0.00,VWS V14.00,2013-09-16 02:05:00,
2013-09-15 19:10:00,73.5,37.0,29.96,SW,229,16.0,28.0,26,0.00,,---,0.00,VWS V14.00,2013-09-16 02:10:00,
2013-09-15 19:15:00,73.1,36.7,29.97,SW,223,19.0,20.0,26,0.00,,---,0.00,VWS V14.00,2013-09-16 02:15:00,
2013-09-15 19:20:00,72.9,36.5,29.97,SW,223,20.0,25.0,26,0.00,,---,0.00,VWS V14.00,2013-09-16 02:20:00,
2013-09-15 19:25:00,72.8,36.4,29.97,SW,218,11.0,21.0,26,0.00,,---,0.00,VWS V14.00,2013-09-16 02:25:00,
2013-09-15 19:30:00,72.6,36.3,29.97,SW,216,12.0,21.0,26,0.00,,---,0.00,VWS V14.00,2013-09-16 02:30:00,
2013-09-15 19:35:00,72.3,36.0,29.97,SW,226,14.0,22.0,26,0.00,,---,0.00,VWS V14.00,2013-09-16 02:35:00,
2013-09-15 19:40:00,72.2,35.9,29.97,SW,223,14.0,23.0,26,0.00,,---,0.00,VWS V14.00,2013-09-16 02:40:00,
2013-09-15 19:45:00,72.1,34.9,29.97,SW,223,19.0,22.0,26,0.00,,---,0.00,VWS V14.00,2013-09-16 02:45:00,
2013-09-15 19:50:00,71.8,34.6,29.98,SW,218,14.0,19.0,26,0.00,,---,0.00,VWS V14.00,2013-09-16 02:50:00,
2013-09-15 19:55:00,71.4,35.2,29.98,SW,215,9.0,14.0,26,0.00,,---,0.00,VWS V14.00,2013-09-16 02:55:00,
2013-09-15 20:00:00,71.1,35.0,29.98,SW,215,11.0,15.0,26,0.00,,---,0.00,VWS V14.00,2013-09-16 03:00:00,
2013-09-15 20:05:00,70.8,34.7,29.98,SW,217,8.0,14.0,26,0.00,,---,0.00,VWS V14.00,2013-09-16 03:05:00,
2013-09-15 20:15:00,70.6,34.6,29.98,SW,217,9.0,15.0,26,0.00,,---,0.00,VWS V14.00,2013-09-16 03:15:00,
2013-09-15 20:20:00,70.4,35.3,29.98,SW,217,7.0,11.0,28,0.00,,---,0.00,VWS V14.00,2013-09-16 03:20:00,
2013-09-15 20:25:00,70.1,35.1,29.98,SW,214,14.0,14.0,28,0.00,,---,0.00,VWS V14.00,2013-09-16 03:25:00,
2013-09-15 20:30:00,70.1,35.1,29.98,SSW,213,7.0,14.0,28,0.00,,---,0.00,VWS V14.00,2013-09-16 03:30:00,
2013-09-15 20:35:00,70.0,35.0,29.99,SSW,213,8.0,12.0,28,0.00,,---,0.00,VWS V14.00,2013-09-16 03:35:00,
2013-09-15 20:40:00,69.8,34.8,29.99,SSW,213,8.0,11.0,28,0.00,,---,0.00,VWS V14.00,2013-09-16 03:40:00,
2013-09-15 20:45:00,69.5,34.5,29.99,SSW,213,7.0,11.0,28,0.00,,---,0.00,VWS V14.00,2013-09-16 03:45:00,
2013-09-15 20:50:00,69.6,34.6,29.99,SSW,209,9.0,14.0,28,0.00,,---,0.00,VWS V14.00,2013-09-16 03:50:00,
2013-09-15 20:55:00,69.4,35.4,29.99,SSW,209,8.0,11.0,28,0.00,,---,0.00,VWS V14.00,2013-09-16 03:55:00,
2013-09-15 21:00:00,69.3,35.3,29.99,SSW,209,7.0,11.0,28,0.00,,---,0.00,VWS V14.00,2013-09-16 04:00:00,
2013-09-15 21:05:00,69.3,35.3,29.99,SSW,207,6.0,12.0,28,0.00,,---,0.00,VWS V14.00,2013-09-16 04:05:00,
2013-09-15 21:10:00,69.1,35.1,29.99,SSW,207,6.0,12.0,28,0.00,,---,0.00,VWS V14.00,2013-09-16 04:10:00,
2013-09-15 21:15:00,69.2,35.2,29.99,SSW,205,8.0,13.0,28,0.00,,---,0.00,VWS V14.00,2013-09-16 04:15:00,
2013-09-15 21:20:00,69.0,35.0,29.99,SSW,205,7.0,9.0,28,0.00,,---,0.00,VWS V14.00,2013-09-16 04:20:00,
2013-09-15 21:25:00,68.8,34.8,29.99,SSW,205,8.0,10.0,28,0.00,,---,0.00,VWS V14.00,2013-09-16 04:25:00,
2013-09-15 21:30:00,68.7,35.6,29.99,SSW,205,6.0,11.0,30,0.00,,---,0.00,VWS V14.00,2013-09-16 04:30:00,
2013-09-15 21:35:00,68.7,34.8,29.99,SSW,204,6.0,12.0,28,0.00,,---,0.00,VWS V14.00,2013-09-16 04:35:00,
2013-09-15 21:40:00,68.5,35.5,29.99,SSW,203,8.0,10.0,30,0.00,,---,0.00,VWS V14.00,2013-09-16 04:40:00,
2013-09-15 21:45:00,68.4,34.5,29.99,SSW,203,8.0,12.0,28,0.00,,---,0.00,VWS V14.00,2013-09-16 04:45:00,
2013-09-15 21:50:00,68.6,34.7,29.99,SSW,202,10.0,12.0,28,0.00,,---,0.00,VWS V14.00,2013-09-16 04:50:00,
2013-09-15 21:55:00,68.8,34.8,29.99,SSW,200,13.0,18.0,28,0.00,,---,0.00,VWS V14.00,2013-09-16 04:55:00,
2013-09-15 22:00:00,69.2,35.2,29.99,SSW,194,7.0,19.0,28,0.00,,---,0.00,VWS V14.00,2013-09-16 05:00:00,
2013-09-15 22:05:00,69.0,35.0,29.99,SSW,194,10.0,14.0,28,0.00,,---,0.00,VWS V14.00,2013-09-16 05:05:00,
2013-09-15 22:10:00,69.0,35.0,29.99,SSW,194,14.0,18.0,28,0.00,,---,0.00,VWS V14.00,2013-09-16 05:10:00,
2013-09-15 22:15:00,69.2,35.2,29.99,SSW,192,8.0,14.0,28,0.00,,---,0.00,VWS V14.00,2013-09-16 05:15:00,
2013-09-15 22:20:00,69.1,35.1,29.99,SSW,192,12.0,18.0,28,0.00,,---,0.00,VWS V14.00,2013-09-16 05:20:00,
2013-09-15 22:25:00,69.2,34.3,29.99,South,190,9.0,18.0,28,0.00,,---,0.00,VWS V14.00,2013-09-16 05:25:00,
2013-09-15 22:30:00,69.3,34.4,29.99,South,188,15.0,20.0,28,0.00,,---,0.00,VWS V14.00,2013-09-16 05:30:00,
2013-09-15 22:35:00,69.6,34.6,29.99,SSW,200,12.0,22.0,28,0.00,,---,0.00,VWS V14.00,2013-09-16 05:35:00,
2013-09-15 22:40:00,69.5,34.5,29.99,SSW,194,9.0,21.0,28,0.00,,---,0.00,VWS V14.00,2013-09-16 05:40:00,
2013-09-15 22:45:00,69.5,34.5,29.99,South,190,16.0,16.0,28,0.00,,---,0.00,VWS V14.00,2013-09-16 05:45:00,
2013-09-15 22:50:00,69.5,34.5,29.99,SSW,192,14.0,20.0,28,0.00,,---,0.00,VWS V14.00,2013-09-16 05:50:00,
2013-09-15 22:55:00,69.5,34.5,29.99,South,188,13.0,18.0,28,0.00,,---,0.00,VWS V14.00,2013-09-16 05:55:00,
2013-09-15 23:00:00,69.4,34.5,29.99,South,191,11.0,18.0,28,0.00,,---,0.00,VWS V14.00,2013-09-16 06:00:00,
2013-09-15 23:05:00,69.4,34.5,29.99,South,172,18.0,19.0,28,0.00,,---,0.00,VWS V14.00,2013-09-16 06:05:00,
2013-09-15 23:10:00,69.5,34.5,29.99,South,191,14.0,22.0,28,0.00,,---,0.00,VWS V14.00,2013-09-16 06:10:00,
2013-09-15 23:15:00,69.7,33.8,29.99,SSW,195,20.0,22.0,26,0.00,,---,0.00,VWS V14.00,2013-09-16 06:15:00,
2013-09-15 23:20:00,69.7,33.8,29.99,SSE,160,8.0,24.0,26,0.00,,---,0.00,VWS V14.00,2013-09-16 06:20:00,
2013-09-15 23:25:00,69.4,33.5,29.99,South,182,12.0,20.0,26,0.00,,---,0.00,VWS V14.00,2013-09-16 06:25:00,
2013-09-15 23:30:00,69.3,33.5,29.99,South,173,14.0,19.0,26,0.00,,---,0.00,VWS V14.00,2013-09-16 06:30:00,
2013-09-15 23:35:00,69.6,33.7,29.99,SSE,167,8.0,25.0,26,0.00,,---,0.00,VWS V14.00,2013-09-16 06:35:00,
2013-09-15 23:40:00,69.7,33.8,29.99,South,184,16.0,20.0,26,0.00,,---,0.00,VWS V14.00,2013-09-16 06:40:00,
2013-09-15 23:45:00,69.5,33.6,29.99,South,188,14.0,25.0,26,0.00,,---,0.00,VWS V14.00,2013-09-16 06:45:00,
2013-09-15 23:55:00,69.5,33.6,29.99,South,169,11.0,20.0,26,0.00,,---,0.00,VWS V14.00,2013-09-16 06:55:00,